Terug naar catalogus

THOR ABLESTAR DEB

ActiefLEO
NORAD 48813·DEBRIS·🇺🇸 United States

Gelanceerd Jun 29, 1961 vanaf Cape Canaveral Space Force Station

Loading…

Volgende Passages (komende 24 uur)

TLE

VersSource: Space-Track

Epoch: Sep 13, 2026, 11:11 UTC

1 48813U 61015MR  26256.46614544  .00001535  00000-0  24685-2 0  9993
2 48813  66.6422 286.6907 0464533 227.3209 128.7815 13.15126420612680

Volg THOR ABLESTAR DEB in realtime met AllMySat

Download on the App Store